Location: Gulgong NSW 2852, Australia
(32.2976°S, 149.5548°E)
Time: 04:31:43
(UTC+10:00)

ISS - Visible Passes

Search period start: 16 May 2021 00:00
Search period end: 26 May 2021 00:00
Orbit: 417 x 422 km, 51.6° (Epoch: 15 May)

Date Brightness Start Highest point End Pass type
(mag) Time Alt. Az. Time Alt. Az. Time Alt. Az.
19 May -1.2 05:57:24 10° N 06:00:14 25° NE 06:03:06 10° ESE visible
20 May -0.5 05:11:11 10° NNE 05:12:57 13° NE 05:14:41 10° E visible
21 May -3.8 05:58:32 10° NW 06:01:57 82° SW 06:05:23 10° SE visible
22 May -2.9 05:12:48 24° NNW 05:14:31 49° NE 05:17:51 10° ESE visible
23 May -0.9 04:28:42 18° E 04:28:42 18° E 04:30:01 10° ESE visible
23 May -2.5 06:01:45 14° W 06:03:54 24° SW 06:06:47 10° SSE visible
24 May -2.7 05:17:14 33° S 05:17:14 33° S 05:19:37 10° SSE visible
25 May -1.4 06:05:26 10° SW 06:06:06 10° SSW 06:06:48 10° SSW visible
